TimeMST,TemperatureF,Dew PointF,Humidity,Sea Level PressureIn,VisibilityMPH,Wind Direction,Wind SpeedMPH,Gust SpeedMPH,PrecipitationIn,Events,Conditions,WindDirDegrees,DateUTC
12:53 AM,30.0,19.9,66,30.14,10.0,Calm,Calm,-,N/A,,Clear,0,2012-11-29 07:53:00
1:53 AM,28.0,19.9,72,30.13,10.0,Calm,Calm,-,N/A,,Clear,0,2012-11-29 08:53:00
2:53 AM,24.1,17.1,75,30.15,10.0,Variable,4.6,-,N/A,,Clear,0,2012-11-29 09:53:00
3:53 AM,24.1,17.1,75,30.16,10.0,Calm,Calm,-,N/A,,Clear,0,2012-11-29 10:53:00
4:53 AM,21.9,17.1,82,30.17,10.0,North,3.5,-,N/A,,Clear,350,2012-11-29 11:53:00
5:53 AM,19.0,15.1,85,30.23,10.0,NNE,4.6,-,N/A,,Clear,30,2012-11-29 12:53:00
6:53 AM,18.0,14.0,84,30.27,10.0,Calm,Calm,-,N/A,,Clear,0,2012-11-29 13:53:00
7:53 AM,19.9,16.0,85,30.30,10.0,Calm,Calm,-,N/A,,Clear,0,2012-11-29 14:53:00
8:53 AM,32.0,21.0,64,30.27,10.0,Calm,Calm,-,N/A,,Clear,0,2012-11-29 15:53:00
9:53 AM,41.0,23.0,49,30.26,10.0,Calm,Calm,-,N/A,,Clear,0,2012-11-29 16:53:00
10:53 AM,50.0,25.0,38,30.20,10.0,Calm,Calm,-,N/A,,Clear,0,2012-11-29 17:53:00
11:53 AM,57.0,28.0,33,30.15,10.0,West,11.5,17.3,N/A,,Clear,270,2012-11-29 18:53:00
12:53 PM,55.0,27.0,34,30.13,10.0,WNW,10.4,20.7,N/A,,Clear,290,2012-11-29 19:53:00
1:53 PM,55.9,26.1,32,30.12,10.0,West,8.1,17.3,N/A,,Clear,280,2012-11-29 20:53:00
2:53 PM,57.0,25.0,29,30.12,10.0,West,10.4,-,N/A,,Clear,280,2012-11-29 21:53:00
3:53 PM,53.1,26.1,35,30.14,10.0,West,10.4,-,N/A,,Clear,260,2012-11-29 22:53:00
4:53 PM,50.0,26.1,39,30.18,10.0,West,5.8,-,N/A,,Clear,270,2012-11-29 23:53:00
5:53 PM,43.0,25.0,49,30.22,10.0,Calm,Calm,-,N/A,,Clear,0,2012-11-30 00:53:00
6:53 PM,39.9,24.1,53,30.25,10.0,Calm,Calm,-,N/A,,Clear,0,2012-11-30 01:53:00
7:53 PM,28.9,19.9,69,30.28,10.0,South,5.8,-,N/A,,Clear,190,2012-11-30 02:53:00
8:53 PM,28.0,19.9,72,30.25,10.0,Calm,Calm,-,N/A,,Clear,0,2012-11-30 03:53:00
9:53 PM,25.0,18.0,75,30.22,10.0,Calm,Calm,-,N/A,,Clear,0,2012-11-30 04:53:00
10:53 PM,26.1,19.0,75,30.19,10.0,Calm,Calm,-,N/A,,Clear,0,2012-11-30 05:53:00
11:53 PM,23.0,17.1,78,30.17,10.0,Calm,Calm,-,N/A,,Clear,0,2012-11-30 06:53:00